New Orleans, LA

11:33 PM CDT on July 20, 2017 (GMT -0500)
New Orleans International

Weather History for KMSY - February, 2013

Change the Weather History Date:

Thursday, February 7, 2013

  Actual Average Record
Temperature  
Mean Temperature 63 °F -  
Max Temperature 70 °F 58 °F 80 °F (1957)
Min Temperature 55 °F 40 °F 25 °F (1988)
Degree Days  
Heating Degree Days 2    
Growing Degree Days 13 (Base 50)    
Moisture  
Dew Point 57 °F    
Average Humidity 84    
Maximum Humidity 94    
Minimum Humidity 66    
Precipitation  
Precipitation 1.10 in - - ()
Sea Level Pressure  
Sea Level Pressure 29.92 in    
Wind  
Wind Speed 11 mph (North)    
Max Wind Speed 26 mph    
Max Gust Speed 33 mph    
Visibility 8 miles    
Events Rain    
Averages and records for this station are not official NWS values.
T = Trace of Precipitation, MM = Missing Value Source: NWS Daily Summary

Daily Weather History Graph

Daily Weather History Graph

Search for Another Location

Airport or City:

Trip Planner

Search our weather history database for the weather conditions in past years. The results will help you decide how hot, cold, wet, or windy it might be!

Date:

Astronomy

Feb. 07, 2013 Rise Set
Actual Time 6:47 AM CST 5:43 PM CST
Civil Twilight 6:22 AM CST 6:08 PM CST
Nautical Twilight 5:54 AM CST 6:36 PM CST
Astronomical Twilight 5:25 AM CST 7:04 PM CST
Moon 4:20 AM CST (2/7) 3:13 PM CST (2/7)
Length of Visible Light 11h 46m
Length of Day
10h 56m
Waning Crescent, 9% of the Moon is Illuminated
Feb 7
Waning Crescent
Feb 10
New
Feb 17
First Quarter
Feb 25
Full
Mar 4
Last Quarter

Hourly Weather History & Observations

Time (CST) Temp. Dew Point Humidity Pressure Visibility Wind Dir Wind Speed Gust Speed Precip Events Conditions
12:17 AM 60.8 °F 57.2 °F 88% 29.93 in 3.0 mi ENE 13.8 mph - 0.07 in Rain Rain
12:53 AM 61.0 °F 59.0 °F 93% 29.88 in 3.0 mi East 15.0 mph 21.9 mph 0.25 in Rain Light Rain
1:53 AM 62.1 °F 60.1 °F 93% 29.88 in 10.0 mi ENE 9.2 mph - 0.03 in   Overcast
2:53 AM 63.0 °F 61.0 °F 93% 29.86 in 10.0 mi Variable 3.5 mph - 0.04 in   Overcast
3:53 AM 61.0 °F 59.0 °F 93% 29.84 in 6.0 mi NNW 11.5 mph 23.0 mph 0.16 in Rain Light Rain
4:39 AM 59.0 °F 57.2 °F 94% 29.80 in 3.0 mi NE 26.5 mph 33.4 mph 0.36 in Rain Rain
4:53 AM 60.1 °F 57.9 °F 93% 29.88 in 3.0 mi North 23.0 mph 32.2 mph 0.42 in Rain Heavy Rain
5:22 AM 59.0 °F 57.2 °F 94% 29.88 in 4.0 mi North 21.9 mph 31.1 mph 0.16 in Rain Rain
5:46 AM 59.0 °F 57.2 °F 94% 29.87 in 8.0 mi NNE 16.1 mph 25.3 mph 0.20 in Rain Light Rain
5:53 AM 60.1 °F 57.0 °F 90% 29.87 in 7.0 mi NE 17.3 mph - 0.20 in   Overcast
6:53 AM 60.1 °F 57.0 °F 90% 29.85 in 9.0 mi East 13.8 mph - N/A   Mostly Cloudy
7:53 AM 63.0 °F 57.0 °F 81% 29.90 in 10.0 mi ENE 4.6 mph - N/A   Partly Cloudy
8:53 AM 66.0 °F 57.0 °F 73% 29.93 in 10.0 mi NNE 3.5 mph - N/A   Scattered Clouds
9:53 AM 66.9 °F 59.0 °F 76% 29.95 in 10.0 mi West 4.6 mph - N/A   Partly Cloudy
10:53 AM 68.0 °F 59.0 °F 73% 29.95 in 10.0 mi WNW 6.9 mph - N/A   Scattered Clouds
11:53 AM 70.0 °F 61.0 °F 73% 29.94 in 10.0 mi WNW 8.1 mph - N/A   Scattered Clouds
12:53 PM 66.9 °F 60.1 °F 79% 29.92 in 10.0 mi North 15.0 mph - N/A   Scattered Clouds
1:53 PM 66.9 °F 59.0 °F 76% 29.93 in 10.0 mi NW 13.8 mph - N/A   Mostly Cloudy
2:09 PM 66.2 °F 57.2 °F 73% 29.92 in 10.0 mi NNW 12.7 mph - N/A   Mostly Cloudy
2:53 PM 64.9 °F 57.9 °F 78% 29.93 in 10.0 mi NNW 8.1 mph - N/A   Mostly Cloudy
3:43 PM 66.2 °F 57.2 °F 73% 29.92 in 10.0 mi NNW 10.4 mph - N/A   Partly Cloudy
3:53 PM 66.0 °F 57.9 °F 75% 29.93 in 10.0 mi NNW 9.2 mph - N/A   Partly Cloudy
4:53 PM 64.9 °F 57.0 °F 75% 29.94 in 10.0 mi NW 5.8 mph - N/A   Partly Cloudy
5:53 PM 62.1 °F 55.9 °F 80% 29.94 in 10.0 mi WNW 3.5 mph - N/A   Partly Cloudy
6:53 PM 60.1 °F 55.0 °F 83% 29.95 in 10.0 mi SW 3.5 mph - N/A   Clear
7:53 PM 61.0 °F 55.9 °F 83% 29.95 in 8.0 mi Calm Calm - N/A   Clear
8:53 PM 59.0 °F 55.0 °F 87% 29.96 in 6.0 mi Calm Calm - N/A   Clear
9:53 PM 57.9 °F 54.0 °F 87% 29.97 in 5.0 mi SW 3.5 mph - N/A   Clear
10:53 PM 57.0 °F 54.0 °F 89% 29.97 in 5.0 mi South 4.6 mph - N/A   Clear
11:53 PM 55.9 °F 54.0 °F 93% 29.98 in 4.0 mi Calm Calm - N/A   Clear